Language: 


Des rapports , des résumés tant et plus, au choix de chacun....


Données statistiques de la station
Quotidien Rapport Décembre 26, 2017 Unités:  Métrique    Anglais   les deux
« Précédent Jour
Suivant Jour »
Quotidien Hebdomadaire Mensuel Annuel Actuel
  Haut: Bas: Moyen:
Température: -17.8 °C -14.8 °C -14.1 °C
Pt de rosée: -17.8 °C -15 °C -14.7 °C
Humidité: Humidity % 81 % 91 %
Vitesse du vent: 0 km/h 11.1 km/h 29.9 km/h
Rafales: 0 km/h - -
Vent:- - SW
Pression: 0 hPa 33788.9 hPa -
Précipitation: 104.14 mm    
Historical Graphs
 
 
Données statistiques pour Décembre 26, 2017
Heure Température Point de rosée Pression Vent Vitesse du vent Refales Humidité Pluie (taux horaire)
-17.8 °C -17.8 °C 0 hPa Calm     Humidity % 0 mm
00:01 -14.7 °C -15 °C 33958.2 hPa South 52 km/h 60.8 km/h 94 % 0 mm
00:03 -14.7 °C -15 °C 33958.2 hPa SSW 50.5 km/h 61.3 km/h 94 % 0 mm
00:05 -14.7 °C -15 °C 33958.2 hPa SSW 32.3 km/h 61.3 km/h 94 % 0 mm
00:10 -14.7 °C -15 °C 33958.2 hPa SSW 27.7 km/h 61.3 km/h 94 % 0 mm
00:11 -14.7 °C -15 °C 33958.2 hPa South 40.7 km/h 61.3 km/h 94 % 0 mm
00:14 -14.7 °C -15 °C 33958.2 hPa South 36.5 km/h 60.3 km/h 94 % 0 mm
00:19 -14.7 °C -15 °C 33958.2 hPa South 38.3 km/h 65.5 km/h 94 % 0 mm
00:20 -14.7 °C -15 °C 33958.2 hPa SSE 22.5 km/h 65.5 km/h 94 % 0 mm
00:25 -14.8 °C -15 °C 33958.2 hPa SSE 39.4 km/h 65.5 km/h 95 % 0 mm
00:26 -14.8 °C -15 °C 33958.2 hPa SSW 28.5 km/h 65.5 km/h 95 % 0 mm
00:31 -14.8 °C -15 °C 33924.3 hPa SSE 34.1 km/h 59.5 km/h 95 % 0 mm
00:36 -14.8 °C -15 °C 33924.3 hPa SSW 40.7 km/h 65.5 km/h 95 % 0 mm
00:38 -14.8 °C -15 °C 33924.3 hPa South 32.3 km/h 65.5 km/h 95 % 0 mm
00:39 -14.8 °C -15 °C 33924.3 hPa South 44.1 km/h 65.5 km/h 95 % 0 mm
00:44 -14.8 °C -15 °C 33924.3 hPa South 22 km/h 65.5 km/h 95 % 0 mm
00:49 -14.8 °C -15 °C 33924.3 hPa South 34.1 km/h 57.3 km/h 95 % 0 mm
00:51 -14.8 °C -15 °C 33924.3 hPa South 42.2 km/h 49.7 km/h 95 % 0 mm
00:52 -14.8 °C -15 °C 33924.3 hPa South 43.5 km/h 49.7 km/h 95 % 0 mm
00:57 -14.8 °C -15 °C 33890.5 hPa SSW 31.9 km/h 49.7 km/h 95 % 0 mm
01:02 -14.8 °C -15 °C 33890.5 hPa South 33.6 km/h 63.7 km/h 95 % 0 mm
01:05 -14.8 °C -15 °C 33890.5 hPa South 28.5 km/h 63.7 km/h 95 % 0 mm
01:10 -14.8 °C -15 °C 33890.5 hPa South 28.5 km/h 49.7 km/h 95 % 0 mm
01:13 -14.8 °C -15 °C 33890.5 hPa SSW 27.2 km/h 50.5 km/h 95 % 0 mm
01:14 -14.8 °C -15 °C 33890.5 hPa SSE 38.3 km/h 50.5 km/h 95 % 0 mm
01:19 -14.8 °C -15 °C 33890.5 hPa South 27.7 km/h 51 km/h 95 % 0 mm
01:24 -14.8 °C -15 °C 33890.5 hPa SSE 28.5 km/h 55.7 km/h 95 % 0 mm
01:27 -14.8 °C -15 °C 33856.6 hPa South 39.4 km/h 59.1 km/h 95 % 0 mm
01:28 -14.8 °C -15 °C 33856.6 hPa SSE 55.2 km/h 59.1 km/h 95 % 0 mm
01:33 -14.8 °C -15 °C 33856.6 hPa South 34.1 km/h 59.1 km/h 95 % 0 mm
01:34 -14.8 °C -15 °C 33856.6 hPa SW 39.4 km/h 59.1 km/h 95 % 0 mm
01:38 -14.8 °C -15 °C 33856.6 hPa South 26.2 km/h 55.2 km/h 95 % 0 mm
01:39 -14.8 °C -15 °C 33856.6 hPa SSW 22 km/h 52 km/h 95 % 0 mm
01:44 -14.7 °C -15 °C 33856.6 hPa South 43.5 km/h 55.7 km/h 95 % 0 mm
01:45 -14.7 °C -15 °C 33856.6 hPa SSW 25.4 km/h 55.7 km/h 95 % 0 mm
01:50 -14.7 °C -15 °C 33856.6 hPa SSW 59.1 km/h 59.1 km/h 95 % 0 mm
01:54 -14.7 °C -15 °C 33856.6 hPa SSW 45.1 km/h 59.1 km/h 94 % 0 mm
01:57 -14.7 °C -15 °C 33856.6 hPa SW 19.6 km/h 59.1 km/h 94 % 0 mm
02:02 -14.7 °C -15 °C 33856.6 hPa WSW 33.2 km/h 49.2 km/h 94 % 0 mm
02:07 -14.6 °C -15 °C 33856.6 hPa SSW 25.4 km/h 45.1 km/h 94 % 0 mm
02:12 -14.6 °C -15 °C 33856.6 hPa SW 26.2 km/h 46.8 km/h 94 % 0 mm
02:17 -14.6 °C -15 °C 33856.6 hPa SSW 20.3 km/h 48.6 km/h 94 % 0 mm
02:18 -14.6 °C -15 °C 33856.6 hPa SSW 31.9 km/h 48.6 km/h 94 % 0 mm
02:23 -14.6 °C -14.4 °C 33856.6 hPa WSW 33.2 km/h 37.5 km/h 95 % 0 mm
02:24 -14.6 °C -14.4 °C 33856.6 hPa SSW 37.5 km/h 37.5 km/h 95 % 0 mm
02:27 -14.6 °C -15 °C 33822.8 hPa SSW 25.4 km/h 38.3 km/h 94 % 0 mm
02:32 -14.5 °C -14.4 °C 33822.8 hPa SSW 33.2 km/h 38.3 km/h 95 % 0 mm
02:37 -14.5 °C -14.4 °C 33822.8 hPa SSW 33.2 km/h 39.9 km/h 95 % 0 mm
02:42 -14.4 °C -15 °C 33822.8 hPa SSW 37.5 km/h 41.2 km/h 94 % 0 mm
02:44 -14.4 °C -15 °C 33822.8 hPa SSW 33.6 km/h 45.9 km/h 94 % 0 mm
02:49 -14.4 °C -15 °C 33822.8 hPa South 24.8 km/h 54.4 km/h 94 % 0 mm
02:52 -14.4 °C -15 °C 33822.8 hPa South 38.3 km/h 54.4 km/h 94 % 0 mm
02:57 -14.3 °C -14.4 °C 33822.8 hPa SSW 39.9 km/h 54.4 km/h 94 % 0 mm
03:00 -14.3 °C -14.4 °C 33822.8 hPa SSW 27.2 km/h 45.9 km/h 94 % 0 mm
03:05 -14.3 °C -14.4 °C 33822.8 hPa SSW 33.2 km/h 45.9 km/h 94 % 0 mm
03:10 -14.2 °C -14.4 °C 33856.6 hPa SSW 45.9 km/h 52 km/h 93 % 0 mm
03:11 -14.2 °C -14.4 °C 33856.6 hPa SW 44.1 km/h 52 km/h 93 % 0 mm
03:16 -14.2 °C -14.4 °C 33856.6 hPa WSW 39.9 km/h 57.3 km/h 93 % 0 mm
03:21 -14.1 °C -14.4 °C 33856.6 hPa SW 37 km/h 57.3 km/h 93 % 0 mm
03:22 -14.1 °C -14.4 °C 33856.6 hPa SSW 39.4 km/h 57.3 km/h 93 % 0 mm
03:27 -14.1 °C -14.4 °C 33822.8 hPa SSW 34.1 km/h 46.3 km/h 93 % 0 mm
03:28 -14.1 °C -14.4 °C 33822.8 hPa SW 37 km/h 46.3 km/h 93 % 0 mm
03:30 -14.1 °C -14.4 °C 33822.8 hPa SSW 33.6 km/h 51 km/h 93 % 0 mm
03:33 -14 °C -14.4 °C 33822.8 hPa South 34.1 km/h 57.3 km/h 93 % 0 mm
03:38 -14 °C -14.4 °C 33822.8 hPa SSW 28.5 km/h 57.3 km/h 93 % 0 mm
03:42 -14 °C -14.4 °C 33822.8 hPa WSW 45.1 km/h 48.6 km/h 93 % 0 mm
03:46 -13.9 °C -14.4 °C 33822.8 hPa SW 36 km/h 68.9 km/h 93 % 0 mm
03:51 -13.9 °C -14.4 °C 33822.8 hPa WSW 26.7 km/h 68.9 km/h 93 % 0 mm
03:52 -13.9 °C -14.4 °C 33822.8 hPa SW 32.3 km/h 68.9 km/h 93 % 0 mm
03:54 -13.9 °C -14.4 °C 33822.8 hPa WSW 39.9 km/h 68.9 km/h 93 % 0 mm
03:57 -13.9 °C -14.4 °C 33822.8 hPa SW 38.3 km/h 50.5 km/h 93 % 0 mm
04:02 -13.9 °C -14.4 °C 33822.8 hPa SSW 34.1 km/h 50.5 km/h 93 % 0 mm
04:05 -13.9 °C -14.4 °C 33822.8 hPa WSW 39.4 km/h 51 km/h 94 % 0 mm
04:06 -13.9 °C -14.4 °C 33822.8 hPa WSW 45.1 km/h 51 km/h 94 % 0 mm
04:12 -14 °C -14.4 °C 33822.8 hPa WSW 31.9 km/h 51 km/h 94 % 0 mm
04:17 -14 °C -14.4 °C 33822.8 hPa WSW 26.7 km/h 52.8 km/h 95 % 0 mm
04:18 -14 °C -14.4 °C 33822.8 hPa WSW 26.7 km/h 52.8 km/h 95 % 0 mm
04:19 -14 °C -14.4 °C 33822.8 hPa WSW 39.9 km/h 52.8 km/h 95 % 7.62 mm
04:24 -14.1 °C -14.4 °C 33822.8 hPa WSW 33.2 km/h 52.8 km/h 96 % 7.62 mm
04:25 -14.1 °C -14.4 °C 33822.8 hPa WSW 39.9 km/h 50.5 km/h 96 % 7.62 mm
04:26 -14.1 °C -14.4 °C 33788.9 hPa WSW 28.5 km/h 50.5 km/h 96 % 7.62 mm
04:31 -14.1 °C -14.4 °C 33788.9 hPa WSW 26.7 km/h 50.5 km/h 96 % 7.62 mm
04:36 -14.1 °C -14.4 °C 33788.9 hPa WSW 39.9 km/h 49.7 km/h 97 % 7.62 mm
04:38 -14.1 °C -14.4 °C 33788.9 hPa WSW 28.5 km/h 49.7 km/h 97 % 7.62 mm
04:39 -14.2 °C -14.4 °C 33788.9 hPa WSW 27.7 km/h 49.7 km/h 97 % 7.62 mm
04:44 -14.2 °C -14.4 °C 33822.8 hPa WSW 27.7 km/h 49.7 km/h 97 % 7.62 mm
04:49 -14.2 °C -14.4 °C 33822.8 hPa WSW 31.4 km/h 36.5 km/h 97 % 7.62 mm
04:54 -14.2 °C -14.4 °C 33822.8 hPa WSW 22 km/h 39.9 km/h 97 % 7.62 mm
04:56 -14.2 °C -14.4 °C 33822.8 hPa WSW 16.9 km/h 39.9 km/h 97 % 7.62 mm
04:57 -14.2 °C -14.4 °C 33822.8 hPa WSW 34.1 km/h 39.9 km/h 97 % 7.62 mm
05:02 -14.2 °C -14.4 °C 33822.8 hPa WSW 27.7 km/h 39.9 km/h 97 % 7.62 mm
05:05 -14.2 °C -14.4 °C 33822.8 hPa WSW 24.8 km/h 34.1 km/h 98 % 7.62 mm
05:10 -14.2 °C -14.4 °C 33822.8 hPa SW 22 km/h 34.1 km/h 98 % 7.62 mm
05:15 -14.2 °C -14.4 °C 33822.8 hPa WSW 20.9 km/h 42.2 km/h 98 % 12.7 mm
05:16 -14.2 °C -14.4 °C 33822.8 hPa SW 27.7 km/h 42.2 km/h 98 % 12.7 mm
05:21 -14.2 °C -14.4 °C 33822.8 hPa WSW 34.1 km/h 42.2 km/h 98 % 7.62 mm
05:26 -14.2 °C -14.4 °C 33822.8 hPa SW 24.8 km/h 34.1 km/h 98 % 7.62 mm
05:31 -14.3 °C -14.4 °C 33822.8 hPa WSW 27.7 km/h 33.6 km/h 98 % 7.62 mm
05:36 -14.3 °C -14.4 °C 33822.8 hPa WSW 26.7 km/h 31.9 km/h 98 % 7.62 mm
05:40 -14.3 °C -14.4 °C 33822.8 hPa SW 16.3 km/h 33.2 km/h 98 % 7.62 mm
05:44 -14.3 °C -14.4 °C 33822.8 hPa WSW 19.6 km/h 34.1 km/h 98 % 7.62 mm
05:46 -14.3 °C -14.4 °C 33822.8 hPa WSW 19.6 km/h 34.1 km/h 98 % 7.62 mm
05:51 -14.3 °C -14.4 °C 33822.8 hPa WSW 27.7 km/h 34.1 km/h 98 % 7.62 mm
05:53 -14.3 °C -14.4 °C 33822.8 hPa SSW 32.3 km/h 33.2 km/h 98 % 7.62 mm
05:58 -14.3 °C -14.4 °C 33822.8 hPa SW 19.2 km/h 33.2 km/h 98 % 7.62 mm
06:01 -14.3 °C -14.4 °C 33822.8 hPa WSW 20.9 km/h 44.6 km/h 98 % 7.62 mm
06:05 -14.3 °C -14.4 °C 33822.8 hPa SW 19.2 km/h 44.6 km/h 98 % 7.62 mm
06:08 -14.3 °C -14.4 °C 33822.8 hPa SW 17.9 km/h 44.6 km/h 98 % 7.62 mm
06:13 -14.3 °C -14.4 °C 33822.8 hPa SSW 20.9 km/h 28.5 km/h 98 % 0 mm
06:18 -14.4 °C -14.4 °C 33822.8 hPa SW 19.2 km/h 25.4 km/h 98 % 0 mm
06:20 -14.4 °C -14.4 °C 33822.8 hPa WSW 19.2 km/h 25.4 km/h 98 % 0 mm
06:25 -14.4 °C -14.4 °C 33822.8 hPa WSW 16.3 km/h 27.2 km/h 98 % 0 mm
06:27 -14.4 °C -14.4 °C 33822.8 hPa SW 15 km/h 27.2 km/h 98 % 0 mm
06:32 -14.4 °C -14.4 °C 33822.8 hPa WSW 16.3 km/h 27.2 km/h 97 % 0 mm
06:37 -14.4 °C -14.4 °C 33822.8 hPa WSW 20.3 km/h 22.5 km/h 97 % 0 mm
06:38 -14.4 °C -14.4 °C 33822.8 hPa WSW 24.8 km/h 24.8 km/h 97 % 0 mm
06:39 -14.4 °C -14.4 °C 33822.8 hPa WSW 19.6 km/h 27.2 km/h 97 % 0 mm
06:44 -14.5 °C -14.4 °C 33822.8 hPa SW 22 km/h 30.7 km/h 97 % 0 mm
06:45 -14.5 °C -14.4 °C 33822.8 hPa WSW 20.9 km/h 30.7 km/h 97 % 0 mm
06:46 -14.5 °C -14.4 °C 33822.8 hPa WSW 22 km/h 30.7 km/h 97 % 0 mm
06:51 -14.6 °C -14.4 °C 33822.8 hPa WSW 33.2 km/h 51 km/h 96 % 0 mm
06:52 -14.6 °C -14.4 °C 33822.8 hPa WSW 39.9 km/h 51 km/h 96 % 0 mm
06:57 -14.5 °C -14.4 °C 33822.8 hPa WSW 25.4 km/h 54.4 km/h 95 % 0 mm
07:02 -14.6 °C -14.4 °C 33822.8 hPa WSW 41.2 km/h 50.5 km/h 95 % 0 mm
07:03 -14.6 °C -14.4 °C 33822.8 hPa WSW 37 km/h 46.8 km/h 95 % 0 mm
07:04 -14.6 °C -14.4 °C 33822.8 hPa WSW 39.9 km/h 45.9 km/h 95 % 0 mm
07:09 -14.6 °C -14.4 °C 33822.8 hPa WSW 20.9 km/h 45.9 km/h 95 % 0 mm
07:12 -14.6 °C -14.4 °C 33822.8 hPa WSW 27.2 km/h 45.9 km/h 95 % 0 mm
07:17 -14.6 °C -14.4 °C 33822.8 hPa WSW 27.7 km/h 33.2 km/h 95 % 0 mm
07:18 -14.6 °C -15 °C 33822.8 hPa WSW 28.5 km/h 32.3 km/h 95 % 0 mm
07:19 -14.6 °C -15 °C 33822.8 hPa WSW 22.5 km/h 32.3 km/h 95 % 0 mm
07:24 -14.6 °C -15 °C 33822.8 hPa WSW 26.7 km/h 28.5 km/h 95 % 0 mm
07:25 -14.6 °C -15 °C 33822.8 hPa SW 22 km/h 28.5 km/h 95 % 0 mm
07:29 -14.6 °C -15 °C 33822.8 hPa SW 20.9 km/h 27.7 km/h 95 % 0 mm
07:32 -14.6 °C -15 °C 33822.8 hPa WSW 22 km/h 28.5 km/h 95 % 0 mm
07:37 -14.7 °C -15 °C 33822.8 hPa WSW 19.2 km/h 28.5 km/h 95 % 0 mm
07:42 -14.7 °C -15 °C 33822.8 hPa SSW 26.2 km/h 27.7 km/h 95 % 0 mm
07:44 -14.7 °C -15 °C 33822.8 hPa SW 19.6 km/h 27.7 km/h 95 % 0 mm
07:47 -14.7 °C -15 °C 33822.8 hPa SSW 16.9 km/h 26.2 km/h 95 % 0 mm
07:49 -14.7 °C -15 °C 33822.8 hPa SW 16.3 km/h 26.2 km/h 95 % 0 mm
07:53 -14.7 °C -15 °C 33822.8 hPa SSW 19.6 km/h 26.2 km/h 95 % 0 mm
07:54 -14.7 °C -14.4 °C 33822.8 hPa SSW 19.2 km/h 26.2 km/h 96 % 0 mm
08:00 -14.7 °C -14.4 °C 33788.9 hPa SSW 16.9 km/h 26.2 km/h 96 % 0 mm
08:01 -14.7 °C -14.4 °C 33788.9 hPa SW 20.3 km/h 26.2 km/h 96 % 0 mm
08:06 -14.7 °C -14.4 °C 33788.9 hPa SW 15.6 km/h 26.7 km/h 96 % 0 mm
08:07 -14.7 °C -14.4 °C 33788.9 hPa SW 23 km/h 30.7 km/h 97 % 0 mm
08:12 -14.7 °C -14.4 °C 33788.9 hPa SW 19.2 km/h 30.7 km/h 97 % 0 mm
08:13 -14.7 °C -14.4 °C 33788.9 hPa WSW 22.5 km/h 30.7 km/h 97 % 0 mm
08:14 -14.7 °C -14.4 °C 33788.9 hPa WSW 40.7 km/h 40.7 km/h 97 % 0 mm
08:19 -14.7 °C -14.4 °C 33788.9 hPa WSW 22.5 km/h 40.7 km/h 97 % 0 mm
08:21 -14.7 °C -14.4 °C 33788.9 hPa SW 19.2 km/h 40.7 km/h 97 % 0 mm
08:26 -14.7 °C -14.4 °C 33822.8 hPa SW 25.4 km/h 28.5 km/h 97 % 0 mm
08:31 -14.7 °C -14.4 °C 33822.8 hPa WSW 16.9 km/h 28.5 km/h 97 % 0 mm
08:34 -14.8 °C -15 °C 33822.8 hPa WSW 19.6 km/h 28.5 km/h 97 % 0 mm
08:38 -14.7 °C -14.4 °C 33822.8 hPa WSW 20.9 km/h 28.5 km/h 97 % 0 mm
08:40 -14.7 °C -14.4 °C 33822.8 hPa WSW 26.2 km/h 28.5 km/h 97 % 0 mm
08:45 -14.7 °C -14.4 °C 33856.6 hPa WSW 18.7 km/h 28.5 km/h 98 % 7.62 mm
08:48 -14.7 °C -14.4 °C 33856.6 hPa WSW 20.3 km/h 35.2 km/h 98 % 7.62 mm
08:50 -14.7 °C -14.4 °C 33856.6 hPa WSW 17.4 km/h 35.2 km/h 98 % 7.62 mm
08:54 -14.8 °C -14.4 °C 33856.6 hPa WSW 19.2 km/h 35.2 km/h 98 % 7.62 mm
08:59 -14.8 °C -14.4 °C 33856.6 hPa WSW 15.6 km/h 27.7 km/h 98 % 7.62 mm
09:02 -14.8 °C -14.4 °C 33856.6 hPa WSW 15.6 km/h 26.2 km/h 98 % 7.62 mm
09:07 -14.8 °C -14.4 °C 33856.6 hPa SW 14 km/h 22.5 km/h 98 % 7.62 mm
09:09 -14.8 °C -14.4 °C 33856.6 hPa WSW 16.3 km/h 20.3 km/h 98 % 7.62 mm
09:14 -14.8 °C -14.4 °C 33856.6 hPa WSW 19.6 km/h 22 km/h 98 % 7.62 mm
09:18 -14.8 °C -14.4 °C 33856.6 hPa WSW 20.3 km/h 26.7 km/h 98 % 7.62 mm
09:20 -14.8 °C -14.4 °C 33856.6 hPa WSW 25.4 km/h 26.7 km/h 98 % 7.62 mm
09:25 -14.8 °C -14.4 °C 33856.6 hPa WSW 15.6 km/h 25.4 km/h 98 % 7.62 mm
09:27 -14.8 °C -14.4 °C 33890.5 hPa West 12.7 km/h 25.4 km/h 98 % 7.62 mm
09:32 -14.8 °C -14.4 °C 33890.5 hPa WSW 11.1 km/h 19.6 km/h 98 % 7.62 mm
09:33 -14.8 °C -14.4 °C 33890.5 hPa WSW 16.3 km/h 18.7 km/h 98 % 7.62 mm
09:38 -14.8 °C -14.4 °C 33890.5 hPa SSW 16.9 km/h 18.7 km/h 98 % 7.62 mm
09:39 -14.7 °C -14.4 °C 33890.5 hPa WSW 20.9 km/h 24.8 km/h 98 % 7.62 mm
09:40 -14.7 °C -14.4 °C 33890.5 hPa WSW 15.6 km/h 24.8 km/h 98 % 7.62 mm
09:45 -14.7 °C -14.4 °C 33890.5 hPa West 19.6 km/h 26.2 km/h 98 % 7.62 mm
09:46 -14.7 °C -14.4 °C 33890.5 hPa West 25.4 km/h 26.2 km/h 98 % 7.62 mm
09:49 -14.7 °C -14.4 °C 33890.5 hPa WSW 20.3 km/h 26.2 km/h 98 % 7.62 mm
09:53 -14.7 °C -14.4 °C 33890.5 hPa WSW 14.5 km/h 27.2 km/h 98 % 20.32 mm
09:58 -14.8 °C -14.4 °C 33890.5 hPa WSW 17.4 km/h 27.2 km/h 98 % 20.32 mm
09:59 -14.8 °C -14.4 °C 33890.5 hPa SW 14 km/h 27.2 km/h 98 % 20.32 mm
10:04 -14.8 °C -14.4 °C 33890.5 hPa SW 18.7 km/h 26.2 km/h 98 % 20.32 mm
10:05 -14.8 °C -14.4 °C 33890.5 hPa WSW 22 km/h 27.2 km/h 98 % 20.32 mm
10:10 -14.8 °C -14.4 °C 33890.5 hPa WSW 16.9 km/h 27.2 km/h 98 % 20.32 mm
10:15 -14.8 °C -14.4 °C 33890.5 hPa SSW 16.3 km/h 22.5 km/h 98 % 20.32 mm
10:19 -14.8 °C -14.4 °C 33890.5 hPa WSW 22 km/h 24.8 km/h 98 % 20.32 mm
10:20 -14.8 °C -14.4 °C 33890.5 hPa SW 26.2 km/h 26.2 km/h 98 % 20.32 mm
10:25 -14.7 °C -14.4 °C 33890.5 hPa WSW 27.2 km/h 41.2 km/h 98 % 20.32 mm
10:28 -14.7 °C -14.4 °C 33890.5 hPa WSW 39.9 km/h 41.2 km/h 98 % 20.32 mm
10:33 -14.8 °C -14.4 °C 33890.5 hPa WSW 34.1 km/h 52.8 km/h 98 % 33.02 mm
10:35 -14.8 °C -14.4 °C 33890.5 hPa WSW 44.6 km/h 52.8 km/h 98 % 33.02 mm
10:37 -14.8 °C -14.4 °C 33890.5 hPa WSW 33.6 km/h 52.8 km/h 98 % 38.1 mm
10:42 -14.8 °C -14.4 °C 33924.3 hPa WSW 38.3 km/h 46.3 km/h 98 % 58.42 mm
10:43 -14.8 °C -14.4 °C 33924.3 hPa WSW 43.5 km/h 46.3 km/h 98 % 58.42 mm
10:44 -14.8 °C -14.4 °C 33924.3 hPa WSW 41.7 km/h 46.3 km/h 98 % 58.42 mm
10:49 -14.8 °C -14.4 °C 33924.3 hPa SW 33.2 km/h 45.9 km/h 98 % 63.5 mm
10:51 -14.8 °C -14.4 °C 33924.3 hPa SSW 39.4 km/h 45.9 km/h 98 % 58.42 mm
10:54 -14.8 °C -14.4 °C 33924.3 hPa WSW 26.7 km/h 45.9 km/h 98 % 58.42 mm
10:57 -14.8 °C -14.4 °C 33890.5 hPa WSW 27.2 km/h 39.4 km/h 98 % 58.42 mm
11:02 -14.8 °C -14.4 °C 33890.5 hPa SW 16.9 km/h 33.2 km/h 98 % 58.42 mm
11:07 -14.8 °C -14.4 °C 33890.5 hPa SSW 28.5 km/h 32.3 km/h 98 % 58.42 mm
11:08 -14.8 °C -14.4 °C 33890.5 hPa SW 16.3 km/h 32.3 km/h 98 % 58.42 mm
11:13 -14.6 °C -14.4 °C 33924.3 hPa WSW 22 km/h 32.3 km/h 98 % 58.42 mm
11:18 -14.5 °C -14.4 °C 33924.3 hPa WSW 22 km/h 32.3 km/h 98 % 58.42 mm
11:20 -14.5 °C -14.4 °C 33924.3 hPa SW 20.3 km/h 31.9 km/h 98 % 58.42 mm
11:25 -14.4 °C -14.4 °C 33924.3 hPa SW 18.7 km/h 27.2 km/h 98 % 58.42 mm
11:26 -14.4 °C -14.4 °C 33924.3 hPa SW 22 km/h 24.8 km/h 98 % 63.5 mm
11:27 -14.4 °C -14.4 °C 33924.3 hPa SW 22 km/h 22.5 km/h 98 % 63.5 mm
11:32 -14.3 °C -14.4 °C 33924.3 hPa SW 25.4 km/h 31.9 km/h 98 % 45.72 mm
11:36 -14.3 °C -14.4 °C 33924.3 hPa SSW 20.9 km/h 31.9 km/h 98 % 38.1 mm
11:41 -14.2 °C -14.4 °C 33890.5 hPa WSW 15 km/h 33.6 km/h 98 % 25.4 mm
11:46 -14.2 °C -13.9 °C 33890.5 hPa SW 27.2 km/h 33.6 km/h 98 % 7.62 mm
11:51 -14.1 °C -13.9 °C 33890.5 hPa WSW 27.7 km/h 39.4 km/h 98 % 7.62 mm
11:55 -14.1 °C -13.9 °C 33890.5 hPa SW 28.5 km/h 49.2 km/h 98 % 7.62 mm
12:00 -14.1 °C -13.9 °C 33890.5 hPa WSW 33.6 km/h 49.2 km/h 98 % 7.62 mm
12:01 -14.2 °C -13.9 °C 33890.5 hPa SW 53.9 km/h 53.9 km/h 98 % 7.62 mm
12:05 -14.1 °C -14.4 °C 33890.5 hPa WSW 39.4 km/h 53.9 km/h 97 % 7.62 mm
12:06 -14.1 °C -14.4 °C 33890.5 hPa SW 35.2 km/h 53.9 km/h 97 % 7.62 mm
12:11 -14 °C -14.4 °C 33890.5 hPa SW 26.7 km/h 53.9 km/h 97 % 7.62 mm
12:16 -13.9 °C -13.9 °C 33890.5 hPa WSW 46.3 km/h 46.3 km/h 96 % 7.62 mm
12:17 -13.9 °C -13.9 °C 33890.5 hPa WSW 31.9 km/h 46.3 km/h 96 % 7.62 mm
12:21 -14 °C -14.4 °C 33890.5 hPa WSW 28.5 km/h 50.5 km/h 96 % 7.62 mm
12:23 -14 °C -14.4 °C 33890.5 hPa WSW 23.8 km/h 53.3 km/h 96 % 7.62 mm
12:28 -14 °C -14.4 °C 33890.5 hPa SSW 35.2 km/h 53.3 km/h 95 % 0 mm
12:30 -14 °C -14.4 °C 33890.5 hPa WSW 33.2 km/h 53.3 km/h 95 % 0 mm
12:35 -13.9 °C -14.4 °C 33890.5 hPa WSW 22.5 km/h 49.2 km/h 94 % 0 mm
12:36 -13.9 °C -14.4 °C 33890.5 hPa SSW 26.2 km/h 49.2 km/h 94 % 0 mm
12:37 -13.9 °C -14.4 °C 33890.5 hPa WSW 26.7 km/h 40.7 km/h 94 % 0 mm
12:42 -13.9 °C -14.4 °C 33856.6 hPa WSW 29.5 km/h 39.4 km/h 94 % 0 mm
12:44 -13.8 °C -14.4 °C 33856.6 hPa WSW 36 km/h 41.2 km/h 93 % 0 mm
12:48 -13.8 °C -14.4 °C 33856.6 hPa WSW 33.6 km/h 41.7 km/h 92 % 0 mm
12:50 -13.8 °C -14.4 °C 33856.6 hPa WSW 33.6 km/h 43.5 km/h 92 % 0 mm
12:55 -13.8 °C -14.4 °C 33856.6 hPa WSW 31.4 km/h 43.5 km/h 91 % 0 mm
12:59 -13.7 °C -14.4 °C 33856.6 hPa SW 39.4 km/h 44.6 km/h 90 % 0 mm
13:04 -13.7 °C -14.4 °C 33856.6 hPa SW 38.3 km/h 44.6 km/h 89 % 0 mm
13:07 -13.6 °C -14.4 °C 33856.6 hPa SW 20.3 km/h 44.6 km/h 89 % 0 mm
13:12 -13.6 °C -14.4 °C 33890.5 hPa WSW 40.7 km/h 45.9 km/h 88 % 0 mm
13:14 -13.8 °C -14.4 °C 33856.6 hPa WSW 31.4 km/h 43.5 km/h 91 % 0 mm
13:15 -13.7 °C -14.4 °C 33890.5 hPa SW 27.7 km/h 45.9 km/h 87 % 0 mm
13:20 -13.7 °C -15 °C 33890.5 hPa WSW 39.9 km/h 51 km/h 86 % 0 mm
13:21 -13.7 °C -15 °C 33890.5 hPa SW 45.9 km/h 51 km/h 86 % 0 mm
13:25 -13.8 °C -14.4 °C 33856.6 hPa WSW 31.4 km/h 43.5 km/h 91 % 0 mm
13:28 -13.6 °C -14.4 °C 33890.5 hPa WSW 27.2 km/h 49.7 km/h 86 % 0 mm
13:32 -13.6 °C -14.4 °C 33890.5 hPa SSW 26.2 km/h 46.8 km/h 86 % 0 mm
13:34 -13.8 °C -14.4 °C 33856.6 hPa WSW 31.4 km/h 43.5 km/h 91 % 0 mm
13:38 -13.7 °C -15 °C 33890.5 hPa WSW 35.2 km/h 52 km/h 85 % 0 mm
13:40 -13.8 °C -14.4 °C 33856.6 hPa WSW 31.4 km/h 43.5 km/h 91 % 0 mm
13:45 -13.7 °C -15 °C 33890.5 hPa SW 24.8 km/h 52 km/h 84 % 0 mm
13:50 -13.6 °C -14.4 °C 33890.5 hPa SW 27.2 km/h 43.5 km/h 85 % 0 mm
13:52 -13.8 °C -14.4 °C 33856.6 hPa WSW 31.4 km/h 43.5 km/h 91 % 0 mm
13:57 -13.6 °C -14.4 °C 33890.5 hPa SSW 27.2 km/h 44.6 km/h 86 % 0 mm
14:00 -13.5 °C -14.4 °C 33890.5 hPa SW 28.5 km/h 50.5 km/h 86 % 0 mm
14:05 -13.6 °C -14.4 °C 33890.5 hPa WSW 44.6 km/h 50.5 km/h 85 % 0 mm
14:06 -13.8 °C -14.4 °C 33856.6 hPa WSW 31.4 km/h 43.5 km/h 91 % 0 mm
14:10 -13.8 °C -14.4 °C 33856.6 hPa WSW 31.4 km/h 43.5 km/h 91 % 0 mm
14:12 -13.8 °C -14.4 °C 33856.6 hPa WSW 31.4 km/h 43.5 km/h 91 % 0 mm
14:16 -13.5 °C -15 °C 33856.6 hPa WSW 32.3 km/h 46.8 km/h 84 % 0 mm
14:19 -13.4 °C -15 °C 33856.6 hPa SW 20.9 km/h 46.8 km/h 84 % 0 mm
14:23 -13.4 °C -15 °C 33856.6 hPa SSW 22.5 km/h 46.8 km/h 83 % 0 mm
14:24 -13.8 °C -14.4 °C 33856.6 hPa WSW 31.4 km/h 43.5 km/h 91 % 0 mm
14:26 -13.4 °C -15 °C 33856.6 hPa WSW 27.2 km/h 34.8 km/h 83 % 0 mm
14:31 -13.5 °C -15 °C 33856.6 hPa SW 30.7 km/h 44.1 km/h 83 % 0 mm
14:32 -13.5 °C -15 °C 33856.6 hPa SSW 29.5 km/h 44.1 km/h 83 % 0 mm
14:33 -13.5 °C -15 °C 33856.6 hPa WSW 34.1 km/h 44.1 km/h 83 % 0 mm
14:38 -13.6 °C -15 °C 33856.6 hPa WSW 27.2 km/h 44.1 km/h 83 % 0 mm
14:40 -13.8 °C -14.4 °C 33856.6 hPa WSW 31.4 km/h 43.5 km/h 91 % 0 mm
14:41 -13.8 °C -14.4 °C 33856.6 hPa WSW 31.4 km/h 43.5 km/h 91 % 0 mm
14:46 -13.6 °C -15 °C 33822.8 hPa WSW 33.2 km/h 39.9 km/h 83 % 0 mm
14:48 -13.6 °C -15 °C 33822.8 hPa WSW 37.5 km/h 39.9 km/h 83 % 0 mm
14:51 -13.6 °C -15 °C 33822.8 hPa SW 27.2 km/h 39.9 km/h 83 % 0 mm
14:53 -13.6 °C -15 °C 33822.8 hPa SSW 28.5 km/h 41.2 km/h 83 % 0 mm
14:58 -13.8 °C -14.4 °C 33856.6 hPa WSW 31.4 km/h 43.5 km/h 91 % 0 mm
14:59 -13.8 °C -14.4 °C 33856.6 hPa WSW 31.4 km/h 43.5 km/h 91 % 0 mm
15:00 -13.5 °C -15 °C 33822.8 hPa SW 28.5 km/h 42.2 km/h 83 % 0 mm
15:05 -13.8 °C -14.4 °C 33856.6 hPa WSW 31.4 km/h 43.5 km/h 91 % 0 mm
15:08 -13.8 °C -14.4 °C 33856.6 hPa WSW 31.4 km/h 43.5 km/h 91 % 0 mm
15:12 -13.8 °C -14.4 °C 33856.6 hPa WSW 31.4 km/h 43.5 km/h 91 % 0 mm
15:13 -13.5 °C -15 °C 33822.8 hPa SSW 20.9 km/h 34.1 km/h 82 % 0 mm
15:18 -13.8 °C -14.4 °C 33856.6 hPa WSW 31.4 km/h 43.5 km/h 91 % 0 mm
15:23 -13.5 °C -15 °C 33822.8 hPa WSW 19.6 km/h 33.2 km/h 81 % 0 mm
15:25 -13.4 °C -15 °C 33822.8 hPa SSW 26.2 km/h 33.2 km/h 81 % 0 mm
15:30 -13.8 °C -14.4 °C 33856.6 hPa WSW 31.4 km/h 43.5 km/h 91 % 0 mm
15:33 -13.4 °C -15 °C 33822.8 hPa SW 33.6 km/h 39.9 km/h 81 % 0 mm
15:36 -13.4 °C -15 °C 33822.8 hPa SW 33.6 km/h 39.9 km/h 81 % 0 mm
15:40 -13.8 °C -14.4 °C 33856.6 hPa WSW 31.4 km/h 43.5 km/h 91 % 0 mm
15:42 -13.8 °C -14.4 °C 33856.6 hPa WSW 31.4 km/h 43.5 km/h 91 % 0 mm
15:45 -13.8 °C -14.4 °C 33856.6 hPa WSW 31.4 km/h 43.5 km/h 91 % 0 mm
15:50 -13.8 °C -14.4 °C 33856.6 hPa WSW 31.4 km/h 43.5 km/h 91 % 0 mm
15:52 -13.8 °C -14.4 °C 33856.6 hPa WSW 31.4 km/h 43.5 km/h 91 % 0 mm
15:57 -13.8 °C -14.4 °C 33856.6 hPa WSW 31.4 km/h 43.5 km/h 91 % 0 mm
15:58 -13.8 °C -14.4 °C 33856.6 hPa WSW 31.4 km/h 43.5 km/h 91 % 0 mm
16:03 -13.8 °C -14.4 °C 33856.6 hPa WSW 31.4 km/h 43.5 km/h 91 % 0 mm
16:04 -13.4 °C -15 °C 33822.8 hPa SW 33.6 km/h 39.9 km/h 81 % 0 mm
16:05 -13.8 °C -14.4 °C 33856.6 hPa WSW 31.4 km/h 43.5 km/h 91 % 0 mm
16:10 -13.4 °C -15 °C 33822.8 hPa SW 33.6 km/h 39.9 km/h 81 % 0 mm
16:11 -13.4 °C -15 °C 33822.8 hPa SW 33.6 km/h 39.9 km/h 81 % 0 mm
16:12 -13.8 °C -14.4 °C 33856.6 hPa WSW 31.4 km/h 43.5 km/h 91 % 0 mm
16:16 -13.8 °C -14.4 °C 33856.6 hPa WSW 31.4 km/h 43.5 km/h 91 % 0 mm
16:21 -13.4 °C -15 °C 33822.8 hPa SW 33.6 km/h 39.9 km/h 81 % 0 mm
16:23 -13.4 °C -15 °C 33822.8 hPa SW 33.6 km/h 39.9 km/h 81 % 0 mm
16:27 -13.4 °C -15 °C 33822.8 hPa SW 33.6 km/h 39.9 km/h 81 % 0 mm
16:32 -13.4 °C -15 °C 33822.8 hPa SW 33.6 km/h 39.9 km/h 81 % 0 mm
16:33 -13.4 °C -15 °C 33822.8 hPa SW 33.6 km/h 39.9 km/h 81 % 0 mm
16:34 -13.4 °C -15 °C 33822.8 hPa SW 33.6 km/h 39.9 km/h 81 % 0 mm
16:39 -13.8 °C -14.4 °C 33856.6 hPa WSW 31.4 km/h 43.5 km/h 91 % 0 mm
16:45 -13.8 °C -14.4 °C 33856.6 hPa WSW 31.4 km/h 43.5 km/h 91 % 0 mm
16:46 -13.8 °C -14.4 °C 33856.6 hPa WSW 31.4 km/h 43.5 km/h 91 % 0 mm
16:51 -13.4 °C -15 °C 33822.8 hPa SW 33.6 km/h 39.9 km/h 81 % 0 mm
16:54 -13.8 °C -14.4 °C 33856.6 hPa WSW 31.4 km/h 43.5 km/h 91 % 0 mm
16:59 -13.8 °C -14.4 °C 33856.6 hPa WSW 31.4 km/h 43.5 km/h 91 % 0 mm
17:00 -13.8 °C -14.4 °C 33856.6 hPa WSW 31.4 km/h 43.5 km/h 91 % 0 mm
17:01 -13.8 °C -14.4 °C 33856.6 hPa WSW 31.4 km/h 43.5 km/h 91 % 0 mm
17:06 -13.4 °C -15 °C 33822.8 hPa SW 33.6 km/h 39.9 km/h 81 % 0 mm
17:08 -13.8 °C -14.4 °C 33856.6 hPa WSW 31.4 km/h 43.5 km/h 91 % 0 mm
17:11 -13.4 °C -15 °C 33822.8 hPa SW 33.6 km/h 39.9 km/h 81 % 0 mm
17:16 -13.8 °C -14.4 °C 33856.6 hPa WSW 31.4 km/h 43.5 km/h 91 % 0 mm
17:19 -13.4 °C -15 °C 33822.8 hPa SW 33.6 km/h 39.9 km/h 81 % 0 mm
17:21 -13.4 °C -15 °C 33822.8 hPa SW 33.6 km/h 39.9 km/h 81 % 0 mm
17:26 -13.8 °C -14.4 °C 33856.6 hPa WSW 31.4 km/h 43.5 km/h 91 % 0 mm
17:27 -13.4 °C -15 °C 33822.8 hPa SW 33.6 km/h 39.9 km/h 81 % 0 mm
17:31 -13.4 °C -15 °C 33822.8 hPa SW 33.6 km/h 39.9 km/h 81 % 0 mm
17:32 -13.4 °C -15 °C 33822.8 hPa SW 33.6 km/h 39.9 km/h 81 % 0 mm
17:33 -13.8 °C -14.4 °C 33856.6 hPa WSW 31.4 km/h 43.5 km/h 91 % 0 mm
17:38 -13.8 °C -14.4 °C 33856.6 hPa WSW 31.4 km/h 43.5 km/h 91 % 0 mm
17:43 -13.8 °C -14.4 °C 33856.6 hPa WSW 31.4 km/h 43.5 km/h 91 % 0 mm
17:48 -13.8 °C -14.4 °C 33856.6 hPa WSW 31.4 km/h 43.5 km/h 91 % 0 mm
17:49 -13.8 °C -14.4 °C 33856.6 hPa WSW 31.4 km/h 43.5 km/h 91 % 0 mm
17:51 -13.8 °C -14.4 °C 33856.6 hPa WSW 31.4 km/h 43.5 km/h 91 % 0 mm
17:56 -13.8 °C -14.4 °C 33856.6 hPa WSW 31.4 km/h 43.5 km/h 91 % 0 mm
17:57 -13.8 °C -14.4 °C 33856.6 hPa WSW 31.4 km/h 43.5 km/h 91 % 0 mm
18:02 -13.8 °C -14.4 °C 33856.6 hPa WSW 31.4 km/h 43.5 km/h 91 % 0 mm
18:03 -13.8 °C -14.4 °C 33856.6 hPa WSW 31.4 km/h 43.5 km/h 91 % 0 mm
18:08 -13.8 °C -14.4 °C 33856.6 hPa WSW 31.4 km/h 43.5 km/h 91 % 0 mm
18:10 -13.8 °C -14.4 °C 33856.6 hPa WSW 31.4 km/h 43.5 km/h 91 % 0 mm
18:13 -13.4 °C -15 °C 33822.8 hPa SW 33.6 km/h 39.9 km/h 81 % 0 mm
18:18 -13.4 °C -15 °C 33822.8 hPa SW 33.6 km/h 39.9 km/h 81 % 0 mm
18:19 -13.4 °C -15 °C 33822.8 hPa SW 33.6 km/h 39.9 km/h 81 % 0 mm
18:23 -13.4 °C -15 °C 33822.8 hPa SW 33.6 km/h 39.9 km/h 81 % 0 mm
18:28 -13.4 °C -15 °C 33822.8 hPa SW 33.6 km/h 39.9 km/h 81 % 0 mm
18:29 -13.4 °C -15 °C 33822.8 hPa SW 33.6 km/h 39.9 km/h 81 % 0 mm
18:34 -13.4 °C -15 °C 33822.8 hPa SW 33.6 km/h 39.9 km/h 81 % 0 mm
18:37 -13.8 °C -14.4 °C 33856.6 hPa WSW 31.4 km/h 43.5 km/h 91 % 0 mm
18:39 -13.8 °C -14.4 °C 33856.6 hPa WSW 31.4 km/h 43.5 km/h 91 % 0 mm
18:42 -13.8 °C -14.4 °C 33856.6 hPa WSW 31.4 km/h 43.5 km/h 91 % 0 mm
18:45 -13.8 °C -14.4 °C 33856.6 hPa WSW 31.4 km/h 43.5 km/h 91 % 0 mm
18:48 -13.4 °C -15 °C 33822.8 hPa SW 33.6 km/h 39.9 km/h 81 % 0 mm
18:50 -13.8 °C -14.4 °C 33856.6 hPa WSW 31.4 km/h 43.5 km/h 91 % 0 mm
18:51 -13.8 °C -14.4 °C 33856.6 hPa WSW 31.4 km/h 43.5 km/h 91 % 0 mm
18:56 -13.4 °C -15 °C 33822.8 hPa SW 33.6 km/h 39.9 km/h 81 % 0 mm
18:58 -13.8 °C -14.4 °C 33856.6 hPa WSW 31.4 km/h 43.5 km/h 91 % 0 mm
19:02 -13.8 °C -14.4 °C 33856.6 hPa WSW 31.4 km/h 43.5 km/h 91 % 0 mm
19:05 -13.4 °C -15 °C 33822.8 hPa SW 33.6 km/h 39.9 km/h 81 % 0 mm
19:07 -13.4 °C -15 °C 33822.8 hPa SW 33.6 km/h 39.9 km/h 81 % 0 mm
19:09 -13.8 °C -14.4 °C 33856.6 hPa WSW 31.4 km/h 43.5 km/h 91 % 0 mm
19:14 -13.8 °C -14.4 °C 33856.6 hPa WSW 31.4 km/h 43.5 km/h 91 % 0 mm
19:17 -13.4 °C -15 °C 33822.8 hPa SW 33.6 km/h 39.9 km/h 81 % 0 mm
19:22 -13.4 °C -15 °C 33822.8 hPa SW 33.6 km/h 39.9 km/h 81 % 0 mm
19:24 -13.8 °C -14.4 °C 33856.6 hPa WSW 31.4 km/h 43.5 km/h 91 % 0 mm
19:29 -13.4 °C -15 °C 33822.8 hPa SW 33.6 km/h 39.9 km/h 81 % 0 mm
19:30 -13.8 °C -14.4 °C 33856.6 hPa WSW 31.4 km/h 43.5 km/h 91 % 0 mm
19:35 -13.4 °C -15 °C 33822.8 hPa SW 33.6 km/h 39.9 km/h 81 % 0 mm
19:37 -13.4 °C -15 °C 33822.8 hPa SW 33.6 km/h 39.9 km/h 81 % 0 mm
19:41 -13.8 °C -14.4 °C 33856.6 hPa WSW 31.4 km/h 43.5 km/h 91 % 0 mm
19:43 -13.8 °C -14.4 °C 33856.6 hPa WSW 31.4 km/h 43.5 km/h 91 % 0 mm
19:48 -13.4 °C -15 °C 33822.8 hPa SW 33.6 km/h 39.9 km/h 81 % 0 mm
19:49 -13.4 °C -15 °C 33822.8 hPa SW 33.6 km/h 39.9 km/h 81 % 0 mm
19:52 -13.4 °C -15 °C 33822.8 hPa SW 33.6 km/h 39.9 km/h 81 % 0 mm
19:55 -13.4 °C -15 °C 33822.8 hPa SW 33.6 km/h 39.9 km/h 81 % 0 mm
20:00 -13.8 °C -14.4 °C 33856.6 hPa WSW 31.4 km/h 43.5 km/h 91 % 0 mm
20:01 -13.4 °C -15 °C 33822.8 hPa SW 33.6 km/h 39.9 km/h 81 % 0 mm
20:02 -13.4 °C -15 °C 33822.8 hPa SW 33.6 km/h 39.9 km/h 81 % 0 mm
20:06 -13.4 °C -15 °C 33822.8 hPa SW 33.6 km/h 39.9 km/h 81 % 0 mm
20:07 -13.8 °C -14.4 °C 33856.6 hPa WSW 31.4 km/h 43.5 km/h 91 % 0 mm
20:08 -13.4 °C -15 °C 33822.8 hPa SW 33.6 km/h 39.9 km/h 81 % 0 mm
20:13 -13.8 °C -14.4 °C 33856.6 hPa WSW 31.4 km/h 43.5 km/h 91 % 0 mm
20:15 -13.4 °C -15 °C 33822.8 hPa SW 33.6 km/h 39.9 km/h 81 % 0 mm
20:18 -13.8 °C -14.4 °C 33856.6 hPa WSW 31.4 km/h 43.5 km/h 91 % 0 mm
20:20 -13.4 °C -15 °C 33822.8 hPa SW 33.6 km/h 39.9 km/h 81 % 0 mm
20:21 -13.8 °C -14.4 °C 33856.6 hPa WSW 31.4 km/h 43.5 km/h 91 % 0 mm
20:26 -13.8 °C -14.4 °C 33856.6 hPa WSW 31.4 km/h 43.5 km/h 91 % 0 mm
20:31 -13.4 °C -15 °C 33822.8 hPa SW 33.6 km/h 39.9 km/h 81 % 0 mm
20:36 -13.8 °C -14.4 °C 33856.6 hPa WSW 31.4 km/h 43.5 km/h 91 % 0 mm
20:37 -13.4 °C -15 °C 33822.8 hPa SW 33.6 km/h 39.9 km/h 81 % 0 mm
20:39 -13.8 °C -14.4 °C 33856.6 hPa WSW 31.4 km/h 43.5 km/h 91 % 0 mm
20:43 -13.8 °C -14.4 °C 33856.6 hPa WSW 31.4 km/h 43.5 km/h 91 % 0 mm
20:45 -13.8 °C -14.4 °C 33856.6 hPa WSW 31.4 km/h 43.5 km/h 91 % 0 mm
20:48 -13.4 °C -15 °C 33822.8 hPa SW 33.6 km/h 39.9 km/h 81 % 0 mm
20:53 -13.8 °C -14.4 °C 33856.6 hPa WSW 31.4 km/h 43.5 km/h 91 % 0 mm
20:57 -13.8 °C -14.4 °C 33856.6 hPa WSW 31.4 km/h 43.5 km/h 91 % 0 mm
20:59 -13.4 °C -15 °C 33822.8 hPa SW 33.6 km/h 39.9 km/h 81 % 0 mm
21:03 -13.4 °C -15 °C 33822.8 hPa SW 33.6 km/h 39.9 km/h 81 % 0 mm
21:07 -13.4 °C -15 °C 33822.8 hPa SW 33.6 km/h 39.9 km/h 81 % 0 mm
21:09 -13.8 °C -14.4 °C 33856.6 hPa WSW 31.4 km/h 43.5 km/h 91 % 0 mm
21:13 -13.8 °C -14.4 °C 33856.6 hPa WSW 31.4 km/h 43.5 km/h 91 % 0 mm
21:16 -13.4 °C -15 °C 33822.8 hPa SW 33.6 km/h 39.9 km/h 81 % 0 mm
21:19 -13.4 °C -15 °C 33822.8 hPa SW 33.6 km/h 39.9 km/h 81 % 0 mm
21:24 -13.4 °C -15 °C 33822.8 hPa SW 33.6 km/h 39.9 km/h 81 % 0 mm
21:29 -13.8 °C -14.4 °C 33856.6 hPa WSW 31.4 km/h 43.5 km/h 91 % 0 mm
21:30 -13.4 °C -15 °C 33822.8 hPa SW 33.6 km/h 39.9 km/h 81 % 0 mm
21:36 -13.4 °C -15 °C 33822.8 hPa SW 33.6 km/h 39.9 km/h 81 % 0 mm
21:41 -13.4 °C -15 °C 33822.8 hPa SW 33.6 km/h 39.9 km/h 81 % 0 mm
21:43 -13.8 °C -14.4 °C 33856.6 hPa WSW 31.4 km/h 43.5 km/h 91 % 0 mm
21:48 -13.4 °C -15 °C 33822.8 hPa SW 33.6 km/h 39.9 km/h 81 % 0 mm
21:50 -13.4 °C -15 °C 33822.8 hPa SW 33.6 km/h 39.9 km/h 81 % 0 mm
21:53 -13.4 °C -15 °C 33822.8 hPa SW 33.6 km/h 39.9 km/h 81 % 0 mm
21:56 -13.8 °C -14.4 °C 33856.6 hPa WSW 31.4 km/h 43.5 km/h 91 % 0 mm
22:01 -13.8 °C -14.4 °C 33856.6 hPa WSW 31.4 km/h 43.5 km/h 91 % 0 mm
22:02 -13.4 °C -15 °C 33822.8 hPa SW 33.6 km/h 39.9 km/h 81 % 0 mm
22:04 -13.8 °C -14.4 °C 33856.6 hPa WSW 31.4 km/h 43.5 km/h 91 % 0 mm
22:08 -13.8 °C -14.4 °C 33856.6 hPa WSW 31.4 km/h 43.5 km/h 91 % 0 mm
22:13 -13.8 °C -14.4 °C 33856.6 hPa WSW 31.4 km/h 43.5 km/h 91 % 0 mm
22:14 -13.4 °C -15 °C 33822.8 hPa SW 33.6 km/h 39.9 km/h 81 % 0 mm
22:18 -13.4 °C -15 °C 33822.8 hPa SW 33.6 km/h 39.9 km/h 81 % 0 mm
22:19 -13.4 °C -15 °C 33822.8 hPa SW 33.6 km/h 39.9 km/h 81 % 0 mm
22:24 -13.4 °C -15 °C 33822.8 hPa SW 33.6 km/h 39.9 km/h 81 % 0 mm
22:26 -13.8 °C -14.4 °C 33856.6 hPa WSW 31.4 km/h 43.5 km/h 91 % 0 mm
22:29 -13.8 °C -14.4 °C 33856.6 hPa WSW 31.4 km/h 43.5 km/h 91 % 0 mm
22:34 -13.4 °C -15 °C 33822.8 hPa SW 33.6 km/h 39.9 km/h 81 % 0 mm
22:39 -13.4 °C -15 °C 33822.8 hPa SW 33.6 km/h 39.9 km/h 81 % 0 mm
22:40 -13.4 °C -15 °C 33822.8 hPa SW 33.6 km/h 39.9 km/h 81 % 0 mm
22:45 -13.4 °C -15 °C 33822.8 hPa SW 33.6 km/h 39.9 km/h 81 % 0 mm
22:46 -13.4 °C -15 °C 33822.8 hPa SW 33.6 km/h 39.9 km/h 81 % 0 mm
22:49 -13.4 °C -15 °C 33822.8 hPa SW 33.6 km/h 39.9 km/h 81 % 0 mm
22:50 -13.8 °C -14.4 °C 33856.6 hPa WSW 31.4 km/h 43.5 km/h 91 % 0 mm
22:54 -13.4 °C -15 °C 33822.8 hPa SW 33.6 km/h 39.9 km/h 81 % 0 mm
22:57 -13.4 °C -15 °C 33822.8 hPa SW 33.6 km/h 39.9 km/h 81 % 0 mm
22:59 -13.8 °C -14.4 °C 33856.6 hPa WSW 31.4 km/h 43.5 km/h 91 % 0 mm
23:04 -13.8 °C -14.4 °C 33856.6 hPa WSW 31.4 km/h 43.5 km/h 91 % 0 mm
23:05 -13.8 °C -14.4 °C 33856.6 hPa WSW 31.4 km/h 43.5 km/h 91 % 0 mm
23:10 -13.8 °C -14.4 °C 33856.6 hPa WSW 31.4 km/h 43.5 km/h 91 % 0 mm
23:13 -13.8 °C -14.4 °C 33856.6 hPa WSW 31.4 km/h 43.5 km/h 91 % 0 mm
23:16 -13.8 °C -14.4 °C 33856.6 hPa WSW 31.4 km/h 43.5 km/h 91 % 0 mm
23:19 -13.8 °C -14.4 °C 33856.6 hPa WSW 31.4 km/h 43.5 km/h 91 % 0 mm
23:21 -13.8 °C -14.4 °C 33856.6 hPa WSW 31.4 km/h 43.5 km/h 91 % 0 mm
23:26 -13.4 °C -15 °C 33822.8 hPa SW 33.6 km/h 39.9 km/h 81 % 0 mm
23:31 -13.4 °C -15 °C 33822.8 hPa SW 33.6 km/h 39.9 km/h 81 % 0 mm
23:33 -13.8 °C -14.4 °C 33856.6 hPa WSW 31.4 km/h 43.5 km/h 91 % 0 mm
23:38 -13.8 °C -14.4 °C 33856.6 hPa WSW 31.4 km/h 43.5 km/h 91 % 0 mm
23:43 -13.8 °C -14.4 °C 33856.6 hPa WSW 31.4 km/h 43.5 km/h 91 % 0 mm
23:45 -13.8 °C -14.4 °C 33856.6 hPa WSW 31.4 km/h 43.5 km/h 91 % 0 mm
23:48 -13.4 °C -15 °C 33822.8 hPa SW 33.6 km/h 39.9 km/h 81 % 0 mm
23:53 -13.4 °C -15 °C 33822.8 hPa SW 33.6 km/h 39.9 km/h 81 % 0 mm
23:54 -13.4 °C -15 °C 33822.8 hPa SW 33.6 km/h 39.9 km/h 81 % 0 mm
23:58 -13.4 °C -15 °C 33822.8 hPa SW 33.6 km/h 39.9 km/h 81 % 0 mm
Le Gheer Warneton
Courtoisie de Weather Underground - 3 mb

Mise a jour : 24/02/2018 22:56:11
Généré par Cumulus 1.9.4 (1099)